Tracking 19280 objects as of 15-Nov-2018
HD Live streaming from Space Station
objects crossing your sky now

THOR 2A

Track THOR 2A now!
THOR 2A is classified as:


NORAD ID: 24808
Int'l Code: 1997-025A
Perigee: 36,128.7 km
Apogee: 36,196.6 km
Inclination: 7.6 °
Period: 1,455.0 minutes
Semi major axis: 42533 km
RCS: 15.8489 m2 (large)
Launch date: May 20, 1997
Source: Norway (NOR)
Launch site: AIR FORCE EASTERN TEST RANGE (AFETR)

15 Ku-band; Nordic region, northern Europe.
aabbcc
Your satellite tracking list
Your tracking list is empty




NASA's NSSDC Master Catalog

Two Line Element Set (TLE):
1 24808U 97025A   18318.96910874 -.00000071  00000-0  00000+0 0  9998
2 24808   7.6226  49.1712 0007982 249.1307 203.5086  0.98970085 78446
Source of the keplerian elements: AFSPC